User: anonymous   Login
Location: Unspecified
(0.0000°N, 0.0000°E)
Time: 15:57:15
(UTC+00:00)
Language:

Tiros 1 - Orbit

View from above orbital plane
View from above orbital plane
View from above satellite
View from above satellite

Ground track
Ground track

The orbit data is extracted from the following two-line orbital elements,

1    29U 60002B   18346.57169936 -.00000134 +00000-0 +11061-4 0  9999
2    29 048.3809 037.6810 0023709 025.9683 334.2413 14.74278216136961
Epoch (UTC): 12 December 2018 13:43:14
Eccentricity: 0.0023709
inclination: 48.3809°
perigee height: 631 km
apogee height: 664 km
right ascension of ascending node: 37.6810°
argument of perigee: 25.9683°
revolutions per day: 14.74278216
mean anomaly at epoch: 334.2413°
orbit number at epoch: 13696

The dashed part of the orbit path shows where the satellite is in the earth's shadow,  

DLR